Location: Bühlhof
(48.7849°N, 8.6361°E)
Time: 23:29:33
(UTC+00:00)

USA 215 - Pass Details

Date: 19 January 2026
Orbit: 1098 x 1109 km, 123.0° (Epoch: 10 January)

Event Time Altitude Azimuth Distance (km) Brightness Sun altitude
Exits shadow 20:09:02 38° 254° (WSW) 1,622 4.3 -39.9°
Drops below altitude 10° 20:12:49 10° 248° (WSW) 2,957 6.0 -40.5°
Sets 20:15:17 0° 246° (WSW) 3,911 6.7 -40.9°
